• In Czech Republic
  • List of Countries
  • For 7 days
  • Water Temperature
  • Satellite Maps
  • Weather Map
  • Weather Widgets
  • user-avatar
    Login

    Hourly Weather Dawson

    Today, 20 June, Wednesday

    Time Temperature Precipitation Wind Pressure Humidity
    00:00 +11°C° 0 mm 1 mps 690 mmHg 69%
    01:00 +10°C° 0 mm 1 mps 690 mmHg 71%
    02:00 +10°C° 0 mm 1 mps 690 mmHg 72%
    03:00 +9°C° 0 mm 1 mps 691 mmHg 74%
    04:00 +12°C° 0 mm 1 mps 691 mmHg 67%
    05:00 +14°C° 0 mm 1 mps 691 mmHg 60%
    06:00 +15°C° 0 mm 0 mps 692 mmHg 52%
    07:00 +18°C° 0 mm 1 mps 692 mmHg 46%
    08:00 +20°C° 0 mm 1 mps 692 mmHg 39%
    09:00 +22°C° 0 mm 1 mps 692 mmHg 33%
    10:00 +23°C° 0 mm 1 mps 691 mmHg 30%
    11:00 +24°C° 0 mm 2 mps 691 mmHg 28%
    12:00 +25°C° 0 mm 2 mps 691 mmHg 26%
    13:00 +26°C° 0 mm 2 mps 690 mmHg 25%
    14:00 +26°C° 0 mm 2 mps 690 mmHg 24%
    15:00 +26°C° 0 mm 2 mps 689 mmHg 24%
    16:00 +26°C° 0 mm 2 mps 689 mmHg 25%
    17:00 +26°C° 0 mm 2 mps 689 mmHg 25%
    18:00 +25°C° 0 mm 1 mps 688 mmHg 26%
    19:00 +24°C° 0 mm 1 mps 688 mmHg 31%
    20:00 +22°C° 0 mm 1 mps 687 mmHg 36%
    21:00 +20°C° 0 mm 1 mps 687 mmHg 41%
    22:00 +19°C° 0 mm 1 mps 686 mmHg 43%
    23:00 +16°C° 0 mm 1 mps 686 mmHg 46%

    Tomorrow, 21 June, Thursday

    Time Temperature Precipitation Wind Pressure Humidity
    00:00 +15°C° 0 mm 1 mps 685 mmHg 48%
    01:00 +15°C° 0 mm 1 mps 685 mmHg 49%
    02:00 +15°C° 0 mm 1 mps 685 mmHg 51%
    03:00 +14°C° 0 mm 1 mps 685 mmHg 52%
    04:00 +16°C° 0 mm 1 mps 685 mmHg 50%
    05:00 +18°C° 0 mm 1 mps 685 mmHg 49%
    06:00 +19°C° 0 mm 1 mps 685 mmHg 47%
    07:00 +21°C° 0 mm 1 mps 686 mmHg 42%
    08:00 +23°C° 0 mm 2 mps 686 mmHg 37%
    09:00 +25°C° 0 mm 2 mps 686 mmHg 32%
    10:00 +26°C° 0 mm 3 mps 686 mmHg 29%
    11:00 +27°C° 0 mm 3 mps 686 mmHg 27%
    12:00 +28°C° 0 mm 3 mps 685 mmHg 24%
    13:00 +28°C° 0 mm 3 mps 685 mmHg 24%
    14:00 +28°C° 0 mm 2 mps 685 mmHg 23%
    15:00 +29°C° 0 mm 2 mps 685 mmHg 23%
    16:00 +28°C° 0 mm 2 mps 684 mmHg 25%
    17:00 +27°C° 0 mm 2 mps 684 mmHg 27%
    18:00 +26°C° 0 mm 2 mps 684 mmHg 30%
    19:00 +24°C° 0.1 mm 2 mps 684 mmHg 37%
    20:00 +22°C° 0.1 mm 1 mps 684 mmHg 45%
    21:00 +20°C° 0.1 mm 1 mps 683 mmHg 53%
    22:00 +19°C° 0.5 mm 1 mps 683 mmHg 61%
    23:00 +16°C° 0.5 mm 1 mps 683 mmHg 69%

    Day after tomorrow, 22 June, Friday

    Time Temperature Precipitation Wind Pressure Humidity
    00:00 +14°C° 0.5 mm 1 mps 683 mmHg 76%
    01:00 +14°C° 0.4 mm 1 mps 683 mmHg 79%
    02:00 +13°C° 0.4 mm 1 mps 683 mmHg 81%
    03:00 +13°C° 0.4 mm 1 mps 684 mmHg 84%
    04:00 +14°C° 0.3 mm 1 mps 684 mmHg 82%
    05:00 +14°C° 0.3 mm 2 mps 684 mmHg 81%
    06:00 +14°C° 0.3 mm 2 mps 685 mmHg 79%
    07:00 +15°C° 0.2 mm 2 mps 685 mmHg 76%
    08:00 +16°C° 0.2 mm 2 mps 685 mmHg 73%
    09:00 +16°C° 0.2 mm 2 mps 686 mmHg 70%
    10:00 +17°C° 0.1 mm 3 mps 686 mmHg 63%
    11:00 +19°C° 0.1 mm 4 mps 687 mmHg 57%
    12:00 +20°C° 0.1 mm 4 mps 687 mmHg 51%
    13:00 +20°C° 0.1 mm 4 mps 687 mmHg 48%
    14:00 +20°C° 0.1 mm 4 mps 687 mmHg 46%
    15:00 +20°C° 0.1 mm 4 mps 687 mmHg 43%
    16:00 +20°C° 0 mm 4 mps 687 mmHg 42%
    17:00 +20°C° 0 mm 4 mps 688 mmHg 42%
    18:00 +20°C° 0 mm 4 mps 688 mmHg 41%
    19:00 +19°C° 0 mm 3 mps 688 mmHg 45%
    20:00 +17°C° 0 mm 3 mps 688 mmHg 50%
    21:00 +16°C° 0 mm 2 mps 688 mmHg 55%
    22:00 +14°C° 0 mm 2 mps 687 mmHg 61%
    23:00 +13°C° 0 mm 1 mps 687 mmHg 68%

    23 June, Saturday

    Time Temperature Precipitation Wind Pressure Humidity
    00:00 +11°C° 0 mm 1 mps 687 mmHg 75%
    01:00 +10°C° 0 mm 1 mps 687 mmHg 77%
    02:00 +10°C° 0 mm 1 mps 688 mmHg 80%
    03:00 +10°C° 0 mm 1 mps 688 mmHg 82%
    04:00 +11°C° 0 mm 1 mps 688 mmHg 75%
    05:00 +13°C° 0 mm 1 mps 688 mmHg 67%
    06:00 +14°C° 0 mm 2 mps 689 mmHg 60%
    07:00 +15°C° 0 mm 2 mps 689 mmHg 55%
    08:00 +16°C° 0 mm 2 mps 689 mmHg 51%
    09:00 +17°C° 0 mm 2 mps 689 mmHg 46%
    10:00 +18°C° 0 mm 2 mps 689 mmHg 43%
    11:00 +19°C° 0 mm 2 mps 688 mmHg 39%
    12:00 +20°C° 0 mm 2 mps 688 mmHg 36%
    13:00 +20°C° 0 mm 2 mps 688 mmHg 35%
    14:00 +20°C° 0 mm 2 mps 688 mmHg 35%
    15:00 +20°C° 0 mm 2 mps 688 mmHg 34%
    16:00 +20°C° 0 mm 2 mps 687 mmHg 34%
    17:00 +20°C° 0 mm 2 mps 687 mmHg 35%
    18:00 +20°C° 0 mm 2 mps 687 mmHg 35%
    19:00 +19°C° 0 mm 2 mps 686 mmHg 40%
    20:00 +18°C° 0 mm 1 mps 686 mmHg 44%
    21:00 +16°C° 0 mm 1 mps 686 mmHg 49%
    22:00 +15°C° 0 mm 1 mps 685 mmHg 52%
    23:00 +13°C° 0 mm 1 mps 685 mmHg 56%

    24 June, Sunday

    Time Temperature Precipitation Wind Pressure Humidity
    00:00 +12°C° 0 mm 1 mps 685 mmHg 59%
    01:00 +11°C° 0 mm 1 mps 685 mmHg 61%
    02:00 +11°C° 0 mm 1 mps 685 mmHg 62%
    03:00 +10°C° 0 mm 1 mps 685 mmHg 64%
    04:00 +12°C° 0 mm 1 mps 685 mmHg 59%
    05:00 +14°C° 0 mm 1 mps 685 mmHg 54%
    06:00 +15°C° 0 mm 1 mps 685 mmHg 49%
    07:00 +18°C° 0 mm 1 mps 686 mmHg 44%
    08:00 +20°C° 0 mm 1 mps 686 mmHg 40%
    09:00 +20°C° 0 mm 2 mps 686 mmHg 36%
    10:00 +20°C° 0.1 mm 2 mps 686 mmHg 36%
    11:00 +20°C° 0.1 mm 2 mps 685 mmHg 37%
    12:00 +20°C° 0.1 mm 2 mps 685 mmHg 37%
    13:00 +20°C° 0.4 mm 2 mps 685 mmHg 43%
    14:00 +19°C° 0.4 mm 3 mps 685 mmHg 48%
    15:00 +18°C° 0.4 mm 3 mps 684 mmHg 53%
    16:00 +17°C° 0.5 mm 3 mps 684 mmHg 59%
    17:00 +16°C° 0.5 mm 2 mps 684 mmHg 65%
    18:00 +16°C° 0.5 mm 2 mps 684 mmHg 71%
    19:00 +15°C° 0.2 mm 1 mps 684 mmHg 75%
    20:00 +14°C° 0.2 mm 1 mps 684 mmHg 79%
    21:00 +13°C° 0.2 mm 1 mps 683 mmHg 83%
    22:00 +12°C° 0.1 mm 1 mps 684 mmHg 86%
    23:00 +11°C° 0.1 mm 1 mps 684 mmHg 88%

    25 June, Monday

    Time Temperature Precipitation Wind Pressure Humidity
    00:00 +10°C° 0.1 mm 1 mps 684 mmHg 91%
    01:00 +10°C° 0 mm 1 mps 684 mmHg 91%
    02:00 +9°C° 0 mm 1 mps 684 mmHg 90%
    03:00 +9°C° 0 mm 1 mps 684 mmHg 90%
    04:00 +10°C° 0 mm 1 mps 684 mmHg 86%
    05:00 +12°C° 0 mm 1 mps 684 mmHg 81%
    06:00 +13°C° 0 mm 1 mps 685 mmHg 76%
    07:00 +14°C° 0 mm 1 mps 685 mmHg 68%
    08:00 +16°C° 0 mm 1 mps 685 mmHg 60%
    09:00 +17°C° 0 mm 2 mps 685 mmHg 52%
    10:00 +18°C° 0 mm 2 mps 685 mmHg 48%
    11:00 +19°C° 0 mm 2 mps 684 mmHg 43%
    12:00 +20°C° 0 mm 3 mps 684 mmHg 39%
    13:00 +20°C° 0 mm 3 mps 684 mmHg 38%
    14:00 +20°C° 0 mm 3 mps 684 mmHg 38%
    15:00 +20°C° 0 mm 4 mps 683 mmHg 37%
    16:00 +19°C° 0 mm 4 mps 683 mmHg 39%
    17:00 +18°C° 0 mm 4 mps 683 mmHg 41%
    18:00 +17°C° 0 mm 4 mps 683 mmHg 43%
    19:00 +16°C° 0 mm 3 mps 683 mmHg 48%
    20:00 +13°C° 0 mm 3 mps 682 mmHg 53%
    21:00 +13°C° 0 mm 2 mps 682 mmHg 59%
    22:00 +12°C° 0 mm 2 mps 682 mmHg 64%
    23:00 +10°C° 0 mm 2 mps 682 mmHg 69%
    Show more